Tracking 23757 objects as of 24-Oct-2021
HD Live streaming from Space Station
objects crossing your sky now

FREGAT DEB

Track FREGAT DEB now!
10-day predictions


NORAD ID: 45617
Int'l Code: 2011-037L
Perigee: 377.7 km
Apogee: 2,073.2 km
Inclination: 51.5 °
Period: 109.8 minutes
Semi major axis: 7596 km
RCS: Unknown
Launch date: July 18, 2011
Source: Commonwealth of Independent States (former USSR) (CIS)
Launch site: TYURATAM MISSILE AND SPACE COMPLEX (TTMTR)

Note: This is SATELLITE DEBRIS
aabbcc
Your satellite tracking list
Your tracking list is empty




NASA's NSSDC Master Catalog

Two Line Element Set (TLE):
1 45617U 11037L   21297.49212315  .00175252  00000-0  13287-1 0  9997
2 45617  51.5052  13.5489 1116003  51.5763 318.0111 13.11252358 63142
Source of the keplerian elements: AFSPC